PGT99 LTFE-LTAC

Flight info

Callsign PGT99
Flight time 1h 12m
Altitude 39000
Route KAVAK UW95 KUXIL DCT BAGLU DCT ATGIT UT58 KFK UT54 HALIL
Aircraft A20N/M-SDE2E3FGHIRWXY/LB1

Departure

Time 2026-05-07 15:02
Airport Milas Bodrum International Airport (LTFE)

Arrival

Time 2026-05-07 16:14
Airport Esenboğa International Airport (LTAC)
Time Latitude Longitude Altitude Speed Heading
2026-05-07 14:48 37.24557 27.67702 31 ft 0 kts 17°
2026-05-07 14:56 37.24547 27.67699 31 ft 4 kts 16°
2026-05-07 14:56 37.24521 27.67689 31 ft 4 kts 13°
2026-05-07 14:56 37.24495 27.67683 30 ft 4 kts
2026-05-07 14:57 37.24485 27.67681 30 ft 1 kts
2026-05-07 14:59 37.24504 27.67675 30 ft 7 kts 327°
2026-05-07 14:59 37.24584 27.67648 31 ft 17 kts 17°
2026-05-07 14:59 37.24639 27.67774 32 ft 20 kts 99°
2026-05-07 15:00 37.24623 27.67849 32 ft 2 kts 106°
2026-05-07 15:00 37.24613 27.67889 31 ft 8 kts 106°
2026-05-07 15:00 37.24589 27.67991 30 ft 18 kts 106°
2026-05-07 15:00 37.24637 27.68109 29 ft 21 kts 19°
2026-05-07 15:01 37.24742 27.68083 30 ft 10 kts 287°
2026-05-07 15:01 37.24770 27.67960 32 ft 32 kts 285°
2026-05-07 15:01 37.24898 27.67420 32 ft 95 kts 286°
2026-05-07 15:01 37.25136 27.66423 31 ft 141 kts 287°
2026-05-07 15:02 37.25334 27.65588 183 ft 152 kts 285°
2026-05-07 15:02 37.25635 27.64324 737 ft 153 kts 283°
2026-05-07 15:02 37.25911 27.63001 1227 ft 162 kts 282°
2026-05-07 15:02 37.26207 27.61595 1697 ft 169 kts 283°
2026-05-07 15:03 37.26673 27.60206 2160 ft 181 kts 303°
2026-05-07 15:03 37.27689 27.59189 2665 ft 199 kts 334°
2026-05-07 15:03 37.29618 27.59050 3268 ft 229 kts 14°
2026-05-07 15:03 37.30631 27.59616 3581 ft 246 kts 31°
2026-05-07 15:04 37.31876 27.61205 4203 ft 267 kts 57°
2026-05-07 15:04 37.32479 27.63398 5306 ft 264 kts 84°
2026-05-07 15:04 37.32327 27.65689 6480 ft 266 kts 98°
2026-05-07 15:04 37.31964 27.67985 7390 ft 272 kts 97°
2026-05-07 15:05 37.31723 27.70386 8171 ft 280 kts 90°
2026-05-07 15:05 37.31655 27.72857 9041 ft 286 kts 88°
2026-05-07 15:05 37.31700 27.75385 9907 ft 293 kts 85°
2026-05-07 15:05 37.31801 27.77961 10486 ft 309 kts 84°
2026-05-07 15:06 37.31940 27.80801 10804 ft 334 kts 84°
2026-05-07 15:06 37.32084 27.83793 11276 ft 350 kts 84°
2026-05-07 15:06 37.32222 27.86830 12070 ft 355 kts 84°
2026-05-07 15:06 37.32361 27.89945 12865 ft 360 kts 84°
2026-05-07 15:07 37.32498 27.93117 13654 ft 366 kts 84°
2026-05-07 15:07 37.32638 27.96331 14367 ft 371 kts 84°
2026-05-07 15:07 37.32779 27.99597 15062 ft 376 kts 85°
2026-05-07 15:07 37.32920 28.02892 15708 ft 382 kts 84°
2026-05-07 15:08 37.33063 28.06241 16388 ft 386 kts 84°
2026-05-07 15:08 37.33206 28.09630 17110 ft 389 kts 84°
2026-05-07 15:08 37.33351 28.13064 17667 ft 398 kts 84°
2026-05-07 15:08 37.33496 28.16555 18341 ft 402 kts 84°
2026-05-07 15:09 37.33643 28.20086 18961 ft 406 kts 84°
2026-05-07 15:09 37.33790 28.23640 19604 ft 409 kts 84°
2026-05-07 15:09 37.34006 28.27217 20200 ft 410 kts 77°
2026-05-07 15:09 37.34855 28.30614 20802 ft 408 kts 60°
2026-05-07 15:10 37.36403 28.33583 21359 ft 406 kts 47°
2026-05-07 15:10 37.38232 28.36293 21947 ft 408 kts 45°
2026-05-07 15:10 37.40102 28.39006 22577 ft 410 kts 45°
2026-05-07 15:10 37.41977 28.41739 23144 ft 415 kts 46°
2026-05-07 15:11 37.43860 28.44508 23709 ft 418 kts 46°
2026-05-07 15:11 37.45748 28.47306 24188 ft 422 kts 46°
2026-05-07 15:11 37.47651 28.50140 24654 ft 425 kts 46°
2026-05-07 15:11 37.49564 28.52997 25114 ft 428 kts 46°
2026-05-07 15:12 37.51464 28.55838 25538 ft 431 kts 46°
2026-05-07 15:12 37.53404 28.58742 26024 ft 434 kts 46°
2026-05-07 15:12 37.55352 28.61661 26458 ft 437 kts 46°
2026-05-07 15:12 37.57317 28.64607 26876 ft 440 kts 46°
2026-05-07 15:13 37.59291 28.67569 27350 ft 441 kts 46°
2026-05-07 15:13 37.61263 28.70534 27848 ft 443 kts 46°
2026-05-07 15:13 37.63254 28.73525 28205 ft 447 kts 46°
2026-05-07 15:13 37.65255 28.76533 28594 ft 449 kts 46°
2026-05-07 15:14 37.67269 28.79566 28967 ft 452 kts 46°
2026-05-07 15:14 37.69295 28.82620 29316 ft 455 kts 46°
2026-05-07 15:14 37.71331 28.85692 29678 ft 458 kts 46°
2026-05-07 15:14 37.73386 28.88794 29981 ft 461 kts 46°
2026-05-07 15:15 37.75447 28.91909 30362 ft 463 kts 46°
2026-05-07 15:15 37.77512 28.95033 30694 ft 465 kts 46°
2026-05-07 15:15 37.79576 28.98166 31102 ft 464 kts 45°
2026-05-07 15:15 37.81653 29.01318 31473 ft 465 kts 46°
2026-05-07 15:16 37.83727 29.04466 31850 ft 465 kts 46°
2026-05-07 15:16 37.85774 29.07576 32244 ft 465 kts 45°
2026-05-07 15:16 37.87862 29.10752 32653 ft 464 kts 45°
2026-05-07 15:16 37.89928 29.13896 33054 ft 463 kts 45°
2026-05-07 15:17 37.91982 29.17024 33434 ft 462 kts 45°
2026-05-07 15:17 37.94009 29.20116 33815 ft 461 kts 45°
2026-05-07 15:17 37.96055 29.23241 34221 ft 460 kts 45°
2026-05-07 15:17 37.98096 29.26360 34580 ft 458 kts 45°
2026-05-07 15:18 38.00120 29.29457 34941 ft 456 kts 45°
2026-05-07 15:18 38.02146 29.32557 35221 ft 456 kts 45°
2026-05-07 15:18 38.04167 29.35652 35501 ft 456 kts 45°
2026-05-07 15:18 38.06190 29.38753 35777 ft 455 kts 45°
2026-05-07 15:19 38.08207 29.41848 36022 ft 455 kts 45°
2026-05-07 15:19 38.10223 29.44946 36322 ft 454 kts 45°
2026-05-07 15:19 38.12229 29.48032 36606 ft 453 kts 45°
2026-05-07 15:19 38.14234 29.51118 36844 ft 453 kts 45°
2026-05-07 15:20 38.16241 29.54211 37084 ft 453 kts 45°
2026-05-07 15:20 38.18241 29.57297 37338 ft 452 kts 45°
2026-05-07 15:20 38.20240 29.60383 37547 ft 452 kts 45°
2026-05-07 15:20 38.22243 29.63475 37703 ft 453 kts 45°
2026-05-07 15:21 38.24243 29.66567 37904 ft 452 kts 45°
2026-05-07 15:21 38.26234 29.69652 38198 ft 450 kts 45°
2026-05-07 15:21 38.28219 29.72729 38394 ft 450 kts 45°
2026-05-07 15:21 38.30206 29.75810 38561 ft 450 kts 45°
2026-05-07 15:22 38.32191 29.78890 38723 ft 450 kts 45°
2026-05-07 15:22 38.34172 29.81969 38869 ft 450 kts 45°
2026-05-07 15:22 38.36152 29.85050 39068 ft 448 kts 45°
2026-05-07 15:22 38.38119 29.88129 39157 ft 449 kts 47°
2026-05-07 15:23 38.41313 29.95116 39159 ft 461 kts 56°
2026-05-07 15:23 38.44355 30.02384 39151 ft 467 kts 56°
2026-05-07 15:24 38.47445 30.09744 39165 ft 473 kts 56°
2026-05-07 15:24 38.50533 30.17106 39177 ft 471 kts 56°
2026-05-07 15:25 38.53620 30.24479 39165 ft 470 kts 56°
2026-05-07 15:25 38.56704 30.31860 39165 ft 470 kts 56°
2026-05-07 15:26 38.59784 30.39248 39165 ft 470 kts 56°
2026-05-07 15:26 38.62847 30.46615 39165 ft 468 kts 56°
2026-05-07 15:27 38.65889 30.53944 39165 ft 469 kts 56°
2026-05-07 15:27 38.68944 30.61325 39165 ft 469 kts 57°
2026-05-07 15:28 38.71992 30.68708 39167 ft 469 kts 57°
2026-05-07 15:28 38.75036 30.76099 39168 ft 468 kts 57°
2026-05-07 15:29 38.78070 30.83482 39167 ft 468 kts 57°
2026-05-07 15:29 38.81103 30.90878 39165 ft 469 kts 57°
2026-05-07 15:30 38.84132 30.98284 39169 ft 467 kts 57°
2026-05-07 15:30 38.87135 31.05645 39171 ft 465 kts 57°
2026-05-07 15:31 38.90134 31.13006 39169 ft 466 kts 57°
2026-05-07 15:31 38.93110 31.20334 39172 ft 465 kts 57°
2026-05-07 15:32 38.96097 31.27707 39170 ft 464 kts 57°
2026-05-07 15:32 38.99074 31.35073 39171 ft 464 kts 57°
2026-05-07 15:33 39.02050 31.42455 39170 ft 464 kts 57°
2026-05-07 15:33 39.05017 31.49832 39170 ft 465 kts 57°
2026-05-07 15:34 39.07991 31.57239 39172 ft 467 kts 57°
2026-05-07 15:34 39.10963 31.64665 39172 ft 466 kts 57°
2026-05-07 15:35 39.13907 31.72040 39165 ft 466 kts 57°
2026-05-07 15:35 39.16868 31.79472 39166 ft 466 kts 57°
2026-05-07 15:36 39.19838 31.86943 39182 ft 469 kts 57°
2026-05-07 15:36 39.22800 31.94417 39168 ft 468 kts 58°
2026-05-07 15:37 39.25760 32.01904 39168 ft 468 kts 58°
2026-05-07 15:37 39.28716 32.09396 39168 ft 469 kts 58°
2026-05-07 15:38 39.31680 32.16927 39166 ft 470 kts 58°
2026-05-07 15:38 39.34635 32.24458 39168 ft 470 kts 58°
2026-05-07 15:39 39.37569 32.31948 39173 ft 470 kts 58°
2026-05-07 15:39 39.40249 32.39710 39175 ft 476 kts 64°
2026-05-07 15:40 39.41647 32.43566 39179 ft 469 kts 53°
2026-05-07 15:40 39.43577 32.46910 39173 ft 460 kts 41°
2026-05-07 15:40 39.45958 32.49604 39173 ft 451 kts 29°
2026-05-07 15:40 39.48692 32.51551 39172 ft 443 kts 17°
2026-05-07 15:41 39.51619 32.52656 39173 ft 436 kts
2026-05-07 15:41 39.54628 32.53029 39170 ft 433 kts 359°
2026-05-07 15:41 39.60604 32.53459 39168 ft 432 kts
2026-05-07 15:42 39.66602 32.54153 39168 ft 433 kts
2026-05-07 15:42 39.72607 32.54983 39165 ft 434 kts
2026-05-07 15:43 39.78608 32.55832 39162 ft 434 kts
2026-05-07 15:43 39.84615 32.56680 39160 ft 434 kts
2026-05-07 15:44 39.90578 32.58027 39154 ft 440 kts 14°
2026-05-07 15:44 39.96077 32.61735 39151 ft 452 kts 32°
2026-05-07 15:45 40.01149 32.66598 39157 ft 453 kts 31°
2026-05-07 15:45 40.06234 32.71451 39157 ft 453 kts 31°
2026-05-07 15:46 40.13810 32.78710 39157 ft 452 kts 32°
2026-05-07 15:47 40.18885 32.83585 39157 ft 452 kts 31°
2026-05-07 15:47 40.23971 32.88425 39157 ft 452 kts 31°
2026-05-07 15:48 40.28242 32.92484 39153 ft 452 kts 31°
2026-05-07 15:48 40.33293 32.97303 39155 ft 452 kts 31°
2026-05-07 15:49 40.38381 33.02167 39154 ft 453 kts 32°
2026-05-07 15:49 40.43452 33.07078 39146 ft 454 kts 36°
2026-05-07 15:49 40.45675 33.10080 39149 ft 462 kts 48°
2026-05-07 15:50 40.47402 33.13677 39148 ft 470 kts 60°
2026-05-07 15:50 40.48551 33.17717 39142 ft 476 kts 72°
2026-05-07 15:50 40.49064 33.22043 39156 ft 483 kts 84°
2026-05-07 15:50 40.48907 33.26489 39138 ft 489 kts 96°
2026-05-07 15:51 40.48079 33.30833 39136 ft 494 kts 108°
2026-05-07 15:51 40.46605 33.34919 39132 ft 497 kts 120°
2026-05-07 15:51 40.44543 33.38570 39130 ft 500 kts 132°
2026-05-07 15:51 40.42008 33.41602 39114 ft 500 kts 144°
2026-05-07 15:52 40.39035 33.43967 39127 ft 500 kts 156°
2026-05-07 15:52 40.35773 33.45529 39131 ft 498 kts 168°
2026-05-07 15:52 40.32369 33.46223 39131 ft 494 kts 180°
2026-05-07 15:52 40.28952 33.46031 39131 ft 490 kts 192°
2026-05-07 15:53 40.25667 33.44969 39136 ft 483 kts 205°
2026-05-07 15:53 40.22658 33.43095 39139 ft 476 kts 217°
2026-05-07 15:53 40.20048 33.40504 39140 ft 468 kts 229°
2026-05-07 15:53 40.17953 33.37343 39141 ft 461 kts 241°
2026-05-07 15:54 40.16443 33.33765 39153 ft 453 kts 252°
2026-05-07 15:54 40.15531 33.29862 39152 ft 447 kts 263°
2026-05-07 15:54 40.15033 33.25868 39112 ft 442 kts 268°
2026-05-07 15:54 40.14687 33.21880 38865 ft 440 kts 266°
2026-05-07 15:55 40.14346 33.17933 38251 ft 435 kts 267°
2026-05-07 15:55 40.13945 33.14112 37467 ft 437 kts 266°
2026-05-07 15:55 40.13493 33.10227 36680 ft 438 kts 266°
2026-05-07 15:55 40.13065 33.06292 35911 ft 435 kts 271°
2026-05-07 15:56 40.13166 33.02392 35155 ft 426 kts 284°
2026-05-07 15:56 40.13850 32.98648 34436 ft 421 kts 290°
2026-05-07 15:56 40.14654 32.94971 33661 ft 421 kts 290°
2026-05-07 15:56 40.15453 32.91292 32858 ft 420 kts 290°
2026-05-07 15:57 40.16240 32.87617 32091 ft 420 kts 290°
2026-05-07 15:57 40.17199 32.84043 31327 ft 413 kts 300°
2026-05-07 15:57 40.18715 32.80910 30594 ft 405 kts 312°
2026-05-07 15:57 40.20721 32.78363 29816 ft 400 kts 324°
2026-05-07 15:58 40.23112 32.76540 28967 ft 398 kts 337°
2026-05-07 15:58 40.25772 32.75531 28183 ft 399 kts 349°
2026-05-07 15:58 40.28552 32.75401 27400 ft 402 kts
2026-05-07 15:58 40.31297 32.76174 26643 ft 408 kts 15°
2026-05-07 15:59 40.33856 32.77831 25900 ft 414 kts 29°
2026-05-07 15:59 40.36063 32.80295 25175 ft 422 kts 43°
2026-05-07 15:59 40.37786 32.83439 24478 ft 428 kts 55°
2026-05-07 15:59 40.39247 32.86852 23789 ft 428 kts 56°
2026-05-07 16:00 40.40687 32.90202 22999 ft 426 kts 56°
2026-05-07 16:00 40.42172 32.93555 22204 ft 424 kts 56°
2026-05-07 16:00 40.43580 32.96962 21416 ft 425 kts 64°
2026-05-07 16:00 40.44399 33.00695 20662 ft 428 kts 79°
2026-05-07 16:01 40.44603 33.04594 19932 ft 428 kts 86°
2026-05-07 16:01 40.44710 33.08485 19209 ft 425 kts 86°
2026-05-07 16:01 40.44629 33.12354 18499 ft 424 kts 97°
2026-05-07 16:01 40.43857 33.16077 17714 ft 422 kts 110°
2026-05-07 16:02 40.42787 33.19659 16926 ft 420 kts 111°
2026-05-07 16:02 40.41720 33.23209 16160 ft 417 kts 111°
2026-05-07 16:02 40.40661 33.26741 15412 ft 414 kts 111°
2026-05-07 16:02 40.39612 33.30247 14687 ft 412 kts 111°
2026-05-07 16:03 40.38571 33.33734 13967 ft 408 kts 111°
2026-05-07 16:03 40.37541 33.37188 13180 ft 405 kts 112°
2026-05-07 16:03 40.36204 33.40415 12391 ft 401 kts 128°
2026-05-07 16:03 40.34237 33.42901 11952 ft 387 kts 147°
2026-05-07 16:04 40.31880 33.44288 12126 ft 357 kts 167°
2026-05-07 16:04 40.29498 33.44494 12140 ft 333 kts 189°
2026-05-07 16:04 40.27357 33.43548 12145 ft 331 kts 212°
2026-05-07 16:04 40.25617 33.41543 12141 ft 334 kts 234°
2026-05-07 16:05 40.24595 33.38846 12139 ft 331 kts 256°
2026-05-07 16:05 40.24355 33.35883 11966 ft 327 kts 272°
2026-05-07 16:05 40.24644 33.32956 11556 ft 325 kts 282°
2026-05-07 16:05 40.25146 33.30063 11015 ft 325 kts 283°
2026-05-07 16:06 40.25647 33.27199 10469 ft 326 kts 283°
2026-05-07 16:06 40.26147 33.24328 10244 ft 325 kts 283°
2026-05-07 16:06 40.26655 33.21418 10161 ft 324 kts 283°
2026-05-07 16:06 40.27128 33.18595 10046 ft 311 kts 283°
2026-05-07 16:07 40.27572 33.15887 9924 ft 297 kts 282°
2026-05-07 16:07 40.27566 33.13257 9791 ft 287 kts 255°
2026-05-07 16:07 40.26558 33.11059 9452 ft 283 kts 223°
2026-05-07 16:07 40.24863 33.09825 8975 ft 279 kts 202°
2026-05-07 16:08 40.23054 33.08951 8490 ft 274 kts 206°
2026-05-07 16:08 40.21357 33.07828 7267 ft 285 kts 210°
2026-05-07 16:08 40.19480 33.06661 6440 ft 293 kts 198°
2026-05-07 16:08 40.17621 33.06506 6924 ft 255 kts 171°
2026-05-07 16:09 40.15965 33.07335 6797 ft 259 kts 147°
2026-05-07 16:09 40.14773 33.09002 6838 ft 251 kts 118°
2026-05-07 16:09 40.14353 33.11222 6666 ft 257 kts 86°
2026-05-07 16:09 40.14882 33.13413 6501 ft 255 kts 53°
2026-05-07 16:10 40.16192 33.14874 6462 ft 246 kts 19°
2026-05-07 16:10 40.17807 33.15173 6483 ft 226 kts 346°
2026-05-07 16:10 40.19157 33.14362 6272 ft 211 kts 318°
2026-05-07 16:10 40.20099 33.12909 5898 ft 209 kts 299°
2026-05-07 16:11 40.20768 33.11332 5825 ft 190 kts 295°
2026-05-07 16:11 40.21235 33.09785 5652 ft 174 kts 284°
2026-05-07 16:11 40.21366 33.08286 5400 ft 162 kts 261°
2026-05-07 16:11 40.20886 33.07037 5174 ft 148 kts 223°
2026-05-07 16:12 40.20027 33.06395 4946 ft 137 kts 208°
2026-05-07 16:12 40.19189 33.05804 4706 ft 137 kts 216°
2026-05-07 16:12 40.18415 33.05068 4525 ft 138 kts 221°
2026-05-07 16:12 40.17665 33.04323 4185 ft 135 kts 219°
2026-05-07 16:13 40.16906 33.03571 3977 ft 139 kts 219°
2026-05-07 16:13 40.16116 33.02834 3791 ft 141 kts 218°
2026-05-07 16:13 40.15355 33.02090 3541 ft 138 kts 217°
2026-05-07 16:13 40.14571 33.01355 3293 ft 138 kts 219°
2026-05-07 16:14 40.13808 33.00620 3144 ft 132 kts 218°
2026-05-07 16:14 40.13144 32.99967 3124 ft 106 kts 216°
2026-05-07 16:14 40.12695 32.99542 3122 ft 70 kts 216°
2026-05-07 16:14 40.12409 32.99281 3118 ft 26 kts 205°
2026-05-07 16:15 40.12236 32.99208 3117 ft 26 kts 190°
2026-05-07 16:15 40.12052 32.99182 3115 ft 27 kts 186°
2026-05-07 16:15 40.11898 32.99093 3114 ft 24 kts 216°
2026-05-07 16:15 40.11798 32.99059 3113 ft 15 kts 144°
2026-05-07 16:16 40.11799 32.99190 3112 ft 15 kts 64°
2026-05-07 16:16 40.11865 32.99242 3112 ft 13 kts 343°
2026-05-07 16:16 40.11889 32.99231 3113 ft 5 kts 339°
2026-05-07 16:16 40.11899 32.99226 3112 ft 0 kts 341°